Regional Weather Roundup
Issued by NWS Little Rock, AR

Home | Current Version | Previous Version | Text Only | Print | Product List | Glossary On
Versions: 1 2 3 4 5 6 7 8 9 10 11 12 13 14 15 16 17 18 19 20 21 22 23 24 25 26 27 28 29 30 31 32 33 34 35 36 37 38 39 40 41 42 43 44 45 46 47 48 49 50
000
ASUS44 KLZK 212105
RWRLZK

WEATHER ROUNDUP FOR ARKANSAS
NATIONAL WEATHER SERVICE LITTLE ROCK AR
400 PM CDT THU AUG 21 2014

NOTE: "FAIR" INDICATES FEW OR NO CLOUDS BELOW 12,000 FEET WITH NO
SIGNIFICANT WEATHER AND/OR OBSTRUCTIONS TO VISIBILITY.

ARZ001-003-010-029-212200-
NORTHWEST ARKANSAS

CITY           SKY/WX    TMP DP  RH WIND       PRES   REMARKS
FAYETTEVILLE   SUNNY     90  70  51 S20       30.02F HX  95
FORT SMITH     MOSUNNY   93  70  46 S13       29.99F HX  99
HARRISON       SUNNY     89  71  55 S12       30.04F HX  95
BENTONVILLE    SUNNY     91  66  43 SW13      30.03S HX  94
ROGERS         SUNNY     93  66  40 S12       30.02F HX  96
SILOAM SPGS    SUNNY     90  70  51 S13G22    30.02S HX  95
HIGHFILL       SUNNY     92  68  45 S12       30.01F HX  96
SPRINGDALE     MOSUNNY   90  70  51 S9G22     30.03F HX  95
$$

ARZ004-005-016-212200-
NORTH CENTRAL ARKANSAS

CITY           SKY/WX    TMP DP  RH WIND       PRES   REMARKS
BATESVILLE     SUNNY     97  68  38 SW13      30.00F HX 101
FLIPPIN        SUNNY     95  63  34 SW10G17   30.00F HX  96
MTN HOME       SUNNY     95  66  38 S9        30.00F HX  98
$$

ARZ040-041-212200-
WEST CENTRAL ARKANSAS

CITY           SKY/WX    TMP DP  RH WIND       PRES   REMARKS
MENA           MOSUNNY   91  73  55 S6        30.05F HX 100
MOUNT IDA      MOSUNNY   88  72  58 CALM      30.03F HX  94
$$

ARZ009-017-025-026-028-212200-
NORTHEAST ARKANSAS

CITY           SKY/WX    TMP DP  RH WIND       PRES   REMARKS
CORNING        LGT RAIN  93  75  55 S18       29.99F HX 104
JONESBORO      SUNNY     94  71  47 S16G22    30.01F HX 101
NEWPORT        SUNNY     95  74  50 S15       30.02F HX 105
WALNUT RIDGE   SUNNY     93  72  49 S17G23    29.98F HX 100
BLYTHEVILLE    SUNNY     91  75  59 SW14G21   30.02F HX 101
$$

ARZ022-023-033-042-044-212200-
CENTRAL ARKANSAS

CITY           SKY/WX    TMP DP  RH WIND       PRES   REMARKS
LITTLE ROCK    MOSUNNY   91  70  49 SW13      30.03F HX  96
N LITTLE ROCK  MOSUNNY   92  75  57 S10       30.03F HX 102
JACKSONVILLE   SUNNY     92  74  54 S9        30.03F HX 102
SEARCY           N/A     93  74  54 CALM        N/A  HX 102
HOT SPRINGS    MOSUNNY   91  71  51 S8        30.05F HX  97
RUSSELLVILLE   SUNNY     92  71  50 SW6       30.01F HX  98
CLINTON        FAIR      97  66  36 SW8       30.01F HAZE    HX 100
$$

ARZ036-212200-
EAST ARKANSAS

CITY           SKY/WX    TMP DP  RH WIND       PRES   REMARKS
WEST MEMPHIS     N/A     92  74  55 MISG      30.04F HX 101
$$

ARZ050-053-066-070-073-212200-
SOUTHWEST ARKANSAS

CITY           SKY/WX    TMP DP  RH WIND       PRES   REMARKS
ARKADELPHIA    FAIR      92  76  59 SW7       30.04F HX 104
CAMDEN         SUNNY     93  72  49 SW5       30.04F HX 100
TEXARKANA      MOSUNNY   92  72  51 S8        30.02F HX  99
EL DORADO      MOSUNNY   91  72  53 W3        30.06F HX  98
DE QUEEN       MOSUNNY   91  74  57 SW7       30.00F HX 100
$$

ARZ056-057-069-212200-
SOUTHEAST ARKANSAS

CITY           SKY/WX    TMP DP  RH WIND       PRES   REMARKS
PINE BLUFF     MOSUNNY   92  72  51 SW9       30.05F HX  99
STUTTGART      SUNNY     93  73  52 SW8       30.06F HX 102
MONTICELLO     MOSUNNY   92  72  51 VRB3      30.05F HX  99

$$




USA.gov is the U.S. government's official web portal to all federal, state and local government web resources and services.